• In Hungary
  • List of Countries
  • For 7 days
  • Water Temperature
  • Satellite Maps
  • Weather Map
  • News
  • Weather Widgets
  • user-avatar
    Login

    Hourly Weather Kalyan

    Today, 20 January, Saturday

    Time Temperature Precipitation Wind Pressure Humidity
    00:00 +25°C° 0 mm 1 mps 758 mmHg 48%
    01:00 +25°C° 0 mm 1 mps 758 mmHg 48%
    02:00 +25°C° 0 mm 1 mps 758 mmHg 48%
    03:00 +25°C° 0 mm 1 mps 758 mmHg 48%
    04:00 +24°C° 0 mm 1 mps 758 mmHg 48%
    05:00 +24°C° 0 mm 1 mps 758 mmHg 48%
    06:00 +25°C° 0 mm 1 mps 758 mmHg 46%
    07:00 +25°C° 0 mm 1 mps 758 mmHg 44%
    08:00 +26°C° 0 mm 1 mps 759 mmHg 43%
    09:00 +28°C° 0 mm 1 mps 759 mmHg 37%
    10:00 +31°C° 0 mm 1 mps 759 mmHg 31%
    11:00 +34°C° 0 mm 1 mps 759 mmHg 25%
    12:00 +35°C° 0 mm 1 mps 758 mmHg 23%
    13:00 +36°C° 0 mm 1 mps 757 mmHg 21%
    14:00 +37°C° 0 mm 1 mps 757 mmHg 19%
    15:00 +37°C° 0 mm 2 mps 756 mmHg 21%
    16:00 +36°C° 0 mm 2 mps 756 mmHg 23%
    17:00 +35°C° 0 mm 3 mps 756 mmHg 25%
    18:00 +32°C° 0 mm 2 mps 756 mmHg 31%
    19:00 +29°C° 0 mm 2 mps 757 mmHg 37%
    20:00 +27°C° 0 mm 2 mps 757 mmHg 42%
    21:00 +27°C° 0 mm 1 mps 757 mmHg 44%
    22:00 +26°C° 0 mm 1 mps 757 mmHg 46%
    23:00 +25°C° 0 mm 1 mps 757 mmHg 48%

    Tomorrow, 21 January, Sunday

    Time Temperature Precipitation Wind Pressure Humidity
    00:00 +25°C° 0 mm 1 mps 757 mmHg 48%
    01:00 +25°C° 0 mm 1 mps 757 mmHg 48%
    02:00 +25°C° 0 mm 1 mps 757 mmHg 48%
    03:00 +24°C° 0 mm 1 mps 757 mmHg 48%
    04:00 +24°C° 0 mm 1 mps 756 mmHg 47%
    05:00 +24°C° 0 mm 1 mps 756 mmHg 47%
    06:00 +24°C° 0 mm 1 mps 757 mmHg 45%
    07:00 +25°C° 0 mm 2 mps 757 mmHg 42%
    08:00 +26°C° 0 mm 2 mps 758 mmHg 40%
    09:00 +29°C° 0 mm 2 mps 758 mmHg 33%
    10:00 +31°C° 0 mm 2 mps 758 mmHg 27%
    11:00 +35°C° 0 mm 2 mps 758 mmHg 20%
    12:00 +36°C° 0 mm 2 mps 757 mmHg 18%
    13:00 +36°C° 0 mm 1 mps 756 mmHg 16%
    14:00 +39°C° 0 mm 1 mps 755 mmHg 14%
    15:00 +37°C° 0 mm 2 mps 755 mmHg 16%
    16:00 +36°C° 0 mm 2 mps 755 mmHg 19%
    17:00 +35°C° 0 mm 3 mps 755 mmHg 21%
    18:00 +32°C° 0 mm 2 mps 756 mmHg 26%
    19:00 +30°C° 0 mm 2 mps 756 mmHg 31%
    20:00 +27°C° 0 mm 2 mps 757 mmHg 36%
    21:00 +27°C° 0 mm 1 mps 757 mmHg 37%
    22:00 +26°C° 0 mm 1 mps 757 mmHg 38%
    23:00 +26°C° 0 mm 1 mps 757 mmHg 39%

    Day after tomorrow, 22 January, Monday

    Time Temperature Precipitation Wind Pressure Humidity
    00:00 +25°C° 0 mm 1 mps 756 mmHg 38%
    01:00 +25°C° 0 mm 1 mps 756 mmHg 37%
    02:00 +25°C° 0 mm 1 mps 756 mmHg 37%
    03:00 +25°C° 0 mm 1 mps 755 mmHg 36%
    04:00 +24°C° 0 mm 2 mps 755 mmHg 36%
    05:00 +24°C° 0 mm 2 mps 755 mmHg 36%
    06:00 +24°C° 0 mm 2 mps 756 mmHg 35%
    07:00 +25°C° 0 mm 2 mps 756 mmHg 34%
    08:00 +26°C° 0 mm 2 mps 757 mmHg 33%
    09:00 +28°C° 0 mm 2 mps 757 mmHg 28%
    10:00 +31°C° 0 mm 2 mps 757 mmHg 23%
    11:00 +35°C° 0 mm 2 mps 757 mmHg 18%
    12:00 +36°C° 0 mm 2 mps 756 mmHg 17%
    13:00 +37°C° 0 mm 2 mps 755 mmHg 16%
    14:00 +37°C° 0 mm 3 mps 754 mmHg 15%
    15:00 +36°C° 0 mm 3 mps 754 mmHg 18%
    16:00 +35°C° 0 mm 3 mps 754 mmHg 22%
    17:00 +34°C° 0 mm 4 mps 754 mmHg 25%
    18:00 +31°C° 0 mm 3 mps 754 mmHg 30%
    19:00 +29°C° 0 mm 2 mps 755 mmHg 36%
    20:00 +27°C° 0 mm 1 mps 756 mmHg 42%
    21:00 +26°C° 0 mm 1 mps 756 mmHg 43%
    22:00 +25°C° 0 mm 1 mps 756 mmHg 44%
    23:00 +25°C° 0 mm 1 mps 756 mmHg 46%

    23 January, Tuesday

    Time Temperature Precipitation Wind Pressure Humidity
    00:00 +24°C° 0 mm 1 mps 756 mmHg 47%
    01:00 +24°C° 0 mm 1 mps 755 mmHg 49%
    02:00 +24°C° 0 mm 1 mps 755 mmHg 50%
    03:00 +23°C° 0 mm 1 mps 755 mmHg 52%
    04:00 +23°C° 0 mm 1 mps 755 mmHg 54%
    05:00 +21°C° 0 mm 2 mps 755 mmHg 56%
    06:00 +23°C° 0 mm 1 mps 756 mmHg 53%
    07:00 +24°C° 0 mm 1 mps 756 mmHg 51%
    08:00 +24°C° 0 mm 1 mps 757 mmHg 49%
    09:00 +27°C° 0 mm 1 mps 757 mmHg 42%
    10:00 +29°C° 0 mm 2 mps 757 mmHg 36%
    11:00 +31°C° 0 mm 2 mps 757 mmHg 29%
    12:00 +33°C° 0 mm 3 mps 756 mmHg 28%
    13:00 +33°C° 0 mm 3 mps 755 mmHg 26%
    14:00 +34°C° 0 mm 4 mps 755 mmHg 25%
    15:00 +33°C° 0 mm 4 mps 755 mmHg 29%
    16:00 +32°C° 0 mm 4 mps 755 mmHg 33%
    17:00 +29°C° 0 mm 4 mps 755 mmHg 37%
    18:00 +28°C° 0 mm 3 mps 755 mmHg 44%
    19:00 +26°C° 0 mm 3 mps 756 mmHg 51%
    20:00 +24°C° 0 mm 2 mps 757 mmHg 57%
    21:00 +23°C° 0 mm 2 mps 757 mmHg 60%
    22:00 +22°C° 0 mm 1 mps 757 mmHg 63%
    23:00 +22°C° 0 mm 1 mps 757 mmHg 66%

    24 January, Wednesday

    Time Temperature Precipitation Wind Pressure Humidity
    00:00 +21°C° 0 mm 1 mps 757 mmHg 65%
    01:00 +21°C° 0 mm 1 mps 756 mmHg 65%
    02:00 +20°C° 0 mm 1 mps 756 mmHg 65%
    03:00 +20°C° 0 mm 1 mps 756 mmHg 63%
    04:00 +20°C° 0 mm 1 mps 756 mmHg 60%
    05:00 +19°C° 0 mm 1 mps 756 mmHg 58%
    06:00 +20°C° 0 mm 1 mps 757 mmHg 54%
    07:00 +21°C° 0 mm 1 mps 757 mmHg 50%
    08:00 +22°C° 0 mm 1 mps 758 mmHg 46%
    09:00 +25°C° 0 mm 1 mps 758 mmHg 39%
    10:00 +28°C° 0 mm 2 mps 758 mmHg 33%
    11:00 +30°C° 0 mm 2 mps 758 mmHg 26%
    12:00 +31°C° 0 mm 2 mps 757 mmHg 23%
    13:00 +34°C° 0 mm 2 mps 756 mmHg 20%
    14:00 +35°C° 0 mm 2 mps 756 mmHg 17%
    15:00 +34°C° 0 mm 2 mps 755 mmHg 19%
    16:00 +33°C° 0 mm 3 mps 755 mmHg 20%
    17:00 +33°C° 0 mm 3 mps 755 mmHg 22%
    18:00 +29°C° 0 mm 3 mps 756 mmHg 29%
    19:00 +27°C° 0 mm 3 mps 756 mmHg 35%
    20:00 +25°C° 0 mm 2 mps 757 mmHg 42%
    21:00 +24°C° 0 mm 2 mps 757 mmHg 42%
    22:00 +24°C° 0 mm 2 mps 757 mmHg 43%
    23:00 +23°C° 0 mm 2 mps 757 mmHg 43%

    25 January, Thursday

    Time Temperature Precipitation Wind Pressure Humidity
    00:00 +23°C° 0 mm 2 mps 756 mmHg 41%
    01:00 +21°C° 0 mm 2 mps 756 mmHg 39%
    02:00 +21°C° 0 mm 2 mps 755 mmHg 36%
    03:00 +21°C° 0 mm 2 mps 755 mmHg 35%
    04:00 +21°C° 0 mm 2 mps 755 mmHg 33%
    05:00 +20°C° 0 mm 2 mps 755 mmHg 31%
    06:00 +21°C° 0 mm 2 mps 756 mmHg 30%
    07:00 +23°C° 0 mm 2 mps 756 mmHg 29%
    08:00 +24°C° 0 mm 2 mps 757 mmHg 28%
    09:00 +27°C° 0 mm 2 mps 757 mmHg 24%
    10:00 +30°C° 0 mm 1 mps 757 mmHg 20%
    11:00 +33°C° 0 mm 1 mps 757 mmHg 16%
    12:00 +34°C° 0 mm 1 mps 756 mmHg 15%
    13:00 +36°C° 0 mm 2 mps 756 mmHg 14%
    14:00 +36°C° 0 mm 2 mps 755 mmHg 13%
    15:00 +35°C° 0 mm 2 mps 755 mmHg 15%
    16:00 +34°C° 0 mm 3 mps 755 mmHg 17%
    17:00 +33°C° 0 mm 3 mps 755 mmHg 18%
    18:00 +30°C° 0 mm 3 mps 755 mmHg 22%
    19:00 +28°C° 0 mm 3 mps 756 mmHg 26%
    20:00 +26°C° 0 mm 2 mps 756 mmHg 30%
    21:00 +25°C° 0 mm 2 mps 756 mmHg 30%
    22:00 +24°C° 0 mm 2 mps 756 mmHg 30%
    23:00 +24°C° 0 mm 2 mps 756 mmHg 30%
    Show more